owner,sensor,date,latitude,longitude,air_pressure(mBar),qcFlag 
TABS,ioos:station:wmo:42045:1,2011-05-01T00:00:00Z,26.2168,-96.4998,1004.96,11111222 
TABS,ioos:station:wmo:42045:1,2011-05-01T00:30:00Z,26.2168,-96.4998,1005.25,11111222 
TABS,ioos:station:wmo:42045:1,2011-05-01T01:00:00Z,26.2168,-96.4998,1005.52,11111222 
TABS,ioos:station:wmo:42045:1,2011-05-01T01:30:00Z,26.2168,-96.4998,1005.67,11111222 
TABS,ioos:station:wmo:42045:1,2011-05-01T02:00:00Z,26.2168,-96.4998,1006.08,11111222 
TABS,ioos:station:wmo:42045:1,2011-05-01T02:30:00Z,26.2168,-96.4998,1006.26,11111222 
TABS,ioos:station:wmo:42045:1,2011-05-01T03:00:00Z,26.2168,-96.4998,1006.4,11111222 
TABS,ioos:station:wmo:42045:1,2011-05-01T03:30:00Z,26.2168,-96.4998,1006.98,11111222 
TABS,ioos:station:wmo:42045:1,2011-05-01T04:00:00Z,26.2168,-96.4998,1007.13,11111222 
TABS,ioos:station:wmo:42045:1,2011-05-01T04:30:00Z,26.2168,-96.4998,1007.49,11111222 
TABS,ioos:station:wmo:42045:1,2011-05-01T05:00:00Z,26.2168,-96.4998,1007.48,11111222 
TABS,ioos:station:wmo:42045:1,2011-05-01T05:30:00Z,26.2168,-96.4998,1007.7,11111222 
TABS,ioos:station:wmo:42045:1,2011-05-01T06:00:00Z,26.2168,-96.4998,1007.8,11111222 
TABS,ioos:station:wmo:42045:1,2011-05-01T06:30:00Z,26.2168,-96.4998,1007.34,11111222 
TABS,ioos:station:wmo:42045:1,2011-05-01T07:00:00Z,26.2168,-96.4998,1007.12,11111222 
TABS,ioos:station:wmo:42045:1,2011-05-01T07:30:00Z,26.2168,-96.4998,1007.13,11111222 
TABS,ioos:station:wmo:42045:1,2011-05-01T08:00:00Z,26.2168,-96.4998,1007.03,11111222 
TABS,ioos:station:wmo:42045:1,2011-05-01T08:30:00Z,26.2168,-96.4998,1006.76,11111222 
TABS,ioos:station:wmo:42045:1,2011-05-01T09:00:00Z,26.2168,-96.4998,1006.64,11111222 
TABS,ioos:station:wmo:42045:1,2011-05-01T09:30:00Z,26.2168,-96.4998,1006.46,11111222 
TABS,ioos:station:wmo:42045:1,2011-05-01T10:00:00Z,26.2168,-96.4998,1005.96,11111222 
TABS,ioos:station:wmo:42045:1,2011-05-01T10:30:00Z,26.2168,-96.4998,1006.1,11111222 
TABS,ioos:station:wmo:42045:1,2011-05-01T11:00:00Z,26.2168,-96.4998,1006.21,11111222 
TABS,ioos:station:wmo:42045:1,2011-05-01T11:30:00Z,26.2168,-96.4998,1006.53,11111222 
TABS,ioos:station:wmo:42045:1,2011-05-01T12:00:00Z,26.2168,-96.4998,1006.9,11111222 
TABS,ioos:station:wmo:42045:1,2011-05-01T12:30:00Z,26.2168,-96.4998,1007.32,11111222 
TABS,ioos:station:wmo:42045:1,2011-05-01T13:00:00Z,26.2168,-96.4998,1007.61,11111222 
TABS,ioos:station:wmo:42045:1,2011-05-01T13:30:00Z,26.2168,-96.4998,1008.0,11111222 
TABS,ioos:station:wmo:42045:1,2011-05-01T14:00:00Z,26.2168,-96.4998,1008.1,11111222 
TABS,ioos:station:wmo:42045:1,2011-05-01T14:30:00Z,26.2168,-96.4998,1007.91,11111222 
TABS,ioos:station:wmo:42045:1,2011-05-01T15:00:00Z,26.2168,-96.4998,1007.73,11111222 
TABS,ioos:station:wmo:42045:1,2011-05-01T15:30:00Z,26.2168,-96.4998,1007.61,11111222 
TABS,ioos:station:wmo:42045:1,2011-05-01T16:00:00Z,26.2168,-96.4998,1007.55,11111222 
TABS,ioos:station:wmo:42045:1,2011-05-01T16:30:00Z,26.2168,-96.4998,1006.84,11111222 
TABS,ioos:station:wmo:42045:1,2011-05-01T17:00:00Z,26.2168,-96.4998,1006.84,11111222 
TABS,ioos:station:wmo:42045:1,2011-05-01T17:30:00Z,26.2168,-96.4998,1006.94,11111222 
TABS,ioos:station:wmo:42045:1,2011-05-01T18:00:00Z,26.2168,-96.4998,1006.86,11111222 
TABS,ioos:station:wmo:42045:1,2011-05-01T18:30:00Z,26.2168,-96.4998,1006.91,11111222 
TABS,ioos:station:wmo:42045:1,2011-05-01T19:00:00Z,26.2168,-96.4998,1006.83,11111222 
TABS,ioos:station:wmo:42045:1,2011-05-01T19:30:00Z,26.2168,-96.4998,1006.59,11111222 
TABS,ioos:station:wmo:42045:1,2011-05-01T20:00:00Z,26.2168,-96.4998,1006.13,11111222 
TABS,ioos:station:wmo:42045:1,2011-05-01T20:30:00Z,26.2168,-96.4998,1006.04,11111222 
TABS,ioos:station:wmo:42045:1,2011-05-01T21:00:00Z,26.2168,-96.4998,1005.49,11111222 
TABS,ioos:station:wmo:42045:1,2011-05-01T21:30:00Z,26.2168,-96.4998,1005.43,11111222 
TABS,ioos:station:wmo:42045:1,2011-05-01T22:00:00Z,26.2168,-96.4998,1005.61,11111222 
TABS,ioos:station:wmo:42045:1,2011-05-01T22:30:00Z,26.2168,-96.4998,1005.48,11111222 
TABS,ioos:station:wmo:42045:1,2011-05-01T23:00:00Z,26.2168,-96.4998,1005.63,11111222 
TABS,ioos:station:wmo:42045:1,2011-05-01T23:30:00Z,26.2168,-96.4998,1005.77,11111222 
TABS,ioos:station:wmo:42045:1,2011-05-02T00:00:00Z,26.2168,-96.4998,1006.14,11111222 
TABS,ioos:station:wmo:42045:1,2011-05-02T00:30:00Z,26.2168,-96.4998,1006.09,11111222 
TABS,ioos:station:wmo:42045:1,2011-05-02T01:00:00Z,26.2168,-96.4998,1006.51,11111222 
TABS,ioos:station:wmo:42045:1,2011-05-02T01:30:00Z,26.2168,-96.4998,1006.66,11111222 
TABS,ioos:station:wmo:42045:1,2011-05-02T02:00:00Z,26.2168,-96.4998,1006.97,11111222 
TABS,ioos:station:wmo:42045:1,2011-05-02T02:30:00Z,26.2168,-96.4998,1007.63,11111222 
TABS,ioos:station:wmo:42045:1,2011-05-02T03:00:00Z,26.2168,-96.4998,1007.58,11111222 
TABS,ioos:station:wmo:42045:1,2011-05-02T03:30:00Z,26.2168,-96.4998,1008.17,11111222 
TABS,ioos:station:wmo:42045:1,2011-05-02T04:00:00Z,26.2168,-96.4998,1008.39,11111222 
TABS,ioos:station:wmo:42045:1,2011-05-02T04:30:00Z,26.2168,-96.4998,1008.64,11111222 
TABS,ioos:station:wmo:42045:1,2011-05-02T05:00:00Z,26.2168,-96.4998,1008.89,11111222 
TABS,ioos:station:wmo:42045:1,2011-05-02T05:30:00Z,26.2168,-96.4998,1008.77,11111222 
TABS,ioos:station:wmo:42045:1,2011-05-02T06:00:00Z,26.2168,-96.4998,1008.89,11111222 
TABS,ioos:station:wmo:42045:1,2011-05-02T06:30:00Z,26.2168,-96.4998,1008.82,11111222 
TABS,ioos:station:wmo:42045:1,2011-05-02T07:00:00Z,26.2168,-96.4998,1009.01,11111222 
TABS,ioos:station:wmo:42045:1,2011-05-02T07:30:00Z,26.2168,-96.4998,1008.87,11111222 
TABS,ioos:station:wmo:42045:1,2011-05-02T08:00:00Z,26.2168,-96.4998,1009.04,11111222 
TABS,ioos:station:wmo:42045:1,2011-05-02T08:30:00Z,26.2168,-96.4998,1009.12,11111222 
TABS,ioos:station:wmo:42045:1,2011-05-02T09:00:00Z,26.2168,-96.4998,1009.3,11111222 
TABS,ioos:station:wmo:42045:1,2011-05-02T09:30:00Z,26.2168,-96.4998,1009.63,11111222 
TABS,ioos:station:wmo:42045:1,2011-05-02T10:00:00Z,26.2168,-96.4998,1009.77,11111222 
TABS,ioos:station:wmo:42045:1,2011-05-02T10:30:00Z,26.2168,-96.4998,1010.26,11111222 
TABS,ioos:station:wmo:42045:1,2011-05-02T11:00:00Z,26.2168,-96.4998,1010.66,11111222 
TABS,ioos:station:wmo:42045:1,2011-05-02T11:30:00Z,26.2168,-96.4998,1011.14,11111222 
TABS,ioos:station:wmo:42045:1,2011-05-02T12:00:00Z,26.2168,-96.4998,1011.72,11111222 
TABS,ioos:station:wmo:42045:1,2011-05-02T12:30:00Z,26.2168,-96.4998,1011.95,11111222 
TABS,ioos:station:wmo:42045:1,2011-05-02T13:00:00Z,26.2168,-96.4998,1012.19,11111222 
TABS,ioos:station:wmo:42045:1,2011-05-02T13:30:00Z,26.2168,-96.4998,1012.35,11111222 
TABS,ioos:station:wmo:42045:1,2011-05-02T14:00:00Z,26.2168,-96.4998,1012.46,11111222 
TABS,ioos:station:wmo:42045:1,2011-05-02T14:30:00Z,26.2168,-96.4998,1012.83,11111222 
TABS,ioos:station:wmo:42045:1,2011-05-02T15:00:00Z,26.2168,-96.4998,1013.1,11111222 
TABS,ioos:station:wmo:42045:1,2011-05-02T15:30:00Z,26.2168,-96.4998,1013.13,11111222 
TABS,ioos:station:wmo:42045:1,2011-05-02T16:00:00Z,26.2168,-96.4998,1013.46,11111222 
TABS,ioos:station:wmo:42045:1,2011-05-02T16:30:00Z,26.2168,-96.4998,1013.55,11111222 
TABS,ioos:station:wmo:42045:1,2011-05-02T17:00:00Z,26.2168,-96.4998,1013.83,11111222 
TABS,ioos:station:wmo:42045:1,2011-05-02T17:30:00Z,26.2168,-96.4998,1014.15,11111222 
TABS,ioos:station:wmo:42045:1,2011-05-02T18:00:00Z,26.2168,-96.4998,1014.07,11111222 
TABS,ioos:station:wmo:42045:1,2011-05-02T18:30:00Z,26.2168,-96.4998,1013.8,11111222 
TABS,ioos:station:wmo:42045:1,2011-05-02T19:00:00Z,26.2168,-96.4998,1013.17,11111222 
TABS,ioos:station:wmo:42045:1,2011-05-02T19:30:00Z,26.2168,-96.4998,1013.54,11111222 
TABS,ioos:station:wmo:42045:1,2011-05-02T20:00:00Z,26.2168,-96.4998,1013.48,11111222 
TABS,ioos:station:wmo:42045:1,2011-05-02T20:30:00Z,26.2168,-96.4998,1013.91,11111222 
TABS,ioos:station:wmo:42045:1,2011-05-02T21:00:00Z,26.2168,-96.4998,1013.23,11111222 
TABS,ioos:station:wmo:42045:1,2011-05-02T21:30:00Z,26.2168,-96.4998,1013.86,11111222 
TABS,ioos:station:wmo:42045:1,2011-05-02T22:00:00Z,26.2168,-96.4998,1015.06,11111222 
TABS,ioos:station:wmo:42045:1,2011-05-02T22:30:00Z,26.2168,-96.4998,1014.28,11111222 
TABS,ioos:station:wmo:42045:1,2011-05-02T23:00:00Z,26.2168,-96.4998,1014.33,11111222 
TABS,ioos:station:wmo:42045:1,2011-05-02T23:30:00Z,26.2168,-96.4998,1014.93,11111222 
TABS,ioos:station:wmo:42045:1,2011-05-03T00:00:00Z,26.2168,-96.4998,1015.15,11111222 
TABS,ioos:station:wmo:42045:1,2011-05-03T00:30:00Z,26.2168,-96.4998,1015.45,11111222 
TABS,ioos:station:wmo:42045:1,2011-05-03T01:00:00Z,26.2168,-96.4998,1015.83,11111222 
TABS,ioos:station:wmo:42045:1,2011-05-03T01:30:00Z,26.2168,-96.4998,1016.85,11111222 
TABS,ioos:station:wmo:42045:1,2011-05-03T02:00:00Z,26.2168,-96.4998,1017.27,11111222 
TABS,ioos:station:wmo:42045:1,2011-05-03T02:30:00Z,26.2168,-96.4998,1017.78,11111222 
TABS,ioos:station:wmo:42045:1,2011-05-03T03:00:00Z,26.2168,-96.4998,1018.18,11111222 
TABS,ioos:station:wmo:42045:1,2011-05-03T03:30:00Z,26.2168,-96.4998,1018.45,11111222 
TABS,ioos:station:wmo:42045:1,2011-05-03T04:00:00Z,26.2168,-96.4998,1018.98,11111222 
TABS,ioos:station:wmo:42045:1,2011-05-03T04:30:00Z,26.2168,-96.4998,1019.64,11111222 
TABS,ioos:station:wmo:42045:1,2011-05-03T05:00:00Z,26.2168,-96.4998,1019.99,11111222 
TABS,ioos:station:wmo:42045:1,2011-05-03T05:30:00Z,26.2168,-96.4998,1019.76,11111222 
TABS,ioos:station:wmo:42045:1,2011-05-03T06:00:00Z,26.2168,-96.4998,1019.8,11111222 
TABS,ioos:station:wmo:42045:1,2011-05-03T06:30:00Z,26.2168,-96.4998,1019.8,11111222 
TABS,ioos:station:wmo:42045:1,2011-05-03T07:00:00Z,26.2168,-96.4998,1019.75,11111222 
TABS,ioos:station:wmo:42045:1,2011-05-03T07:30:00Z,26.2168,-96.4998,1019.92,11111222 
TABS,ioos:station:wmo:42045:1,2011-05-03T08:00:00Z,26.2168,-96.4998,1019.89,11111222 
TABS,ioos:station:wmo:42045:1,2011-05-03T08:30:00Z,26.2168,-96.4998,1020.25,11111222 
TABS,ioos:station:wmo:42045:1,2011-05-03T09:00:00Z,26.2168,-96.4998,1020.48,11111222 
TABS,ioos:station:wmo:42045:1,2011-05-03T09:30:00Z,26.2168,-96.4998,1020.03,11111222 
TABS,ioos:station:wmo:42045:1,2011-05-03T10:00:00Z,26.2168,-96.4998,1020.49,11111222 
TABS,ioos:station:wmo:42045:1,2011-05-03T10:30:00Z,26.2168,-96.4998,1020.6,11111222 
TABS,ioos:station:wmo:42045:1,2011-05-03T11:00:00Z,26.2168,-96.4998,1021.21,11111222 
TABS,ioos:station:wmo:42045:1,2011-05-03T11:30:00Z,26.2168,-96.4998,1021.12,11111222 
TABS,ioos:station:wmo:42045:1,2011-05-03T12:00:00Z,26.2168,-96.4998,1022.4,11111222 
TABS,ioos:station:wmo:42045:1,2011-05-03T12:30:00Z,26.2168,-96.4998,1022.79,11111222 
TABS,ioos:station:wmo:42045:1,2011-05-03T13:00:00Z,26.2168,-96.4998,1023.68,11111222 
TABS,ioos:station:wmo:42045:1,2011-05-03T13:30:00Z,26.2168,-96.4998,1024.27,11111222 
TABS,ioos:station:wmo:42045:1,2011-05-03T14:00:00Z,26.2168,-96.4998,1024.25,11111222 
TABS,ioos:station:wmo:42045:1,2011-05-03T14:30:00Z,26.2168,-96.4998,1024.85,11111222 
TABS,ioos:station:wmo:42045:1,2011-05-03T15:00:00Z,26.2168,-96.4998,1025.5,11111222 
TABS,ioos:station:wmo:42045:1,2011-05-03T15:30:00Z,26.2168,-96.4998,1025.7,11111222 
TABS,ioos:station:wmo:42045:1,2011-05-03T16:00:00Z,26.2168,-96.4998,1025.76,11111222 
TABS,ioos:station:wmo:42045:1,2011-05-03T16:30:00Z,26.2168,-96.4998,1025.58,11111222 
TABS,ioos:station:wmo:42045:1,2011-05-03T17:00:00Z,26.2168,-96.4998,1025.45,11111222 
TABS,ioos:station:wmo:42045:1,2011-05-03T17:30:00Z,26.2168,-96.4998,1025.3,11111222 
TABS,ioos:station:wmo:42045:1,2011-05-03T18:00:00Z,26.2168,-96.4998,1024.7,11111222 
TABS,ioos:station:wmo:42045:1,2011-05-03T18:30:00Z,26.2168,-96.4998,1024.41,11111222 
TABS,ioos:station:wmo:42045:1,2011-05-03T19:00:00Z,26.2168,-96.4998,1024.52,11111222 
TABS,ioos:station:wmo:42045:1,2011-05-03T19:30:00Z,26.2168,-96.4998,1024.17,11111222 
TABS,ioos:station:wmo:42045:1,2011-05-03T20:00:00Z,26.2168,-96.4998,1024.1,11111222 
TABS,ioos:station:wmo:42045:1,2011-05-03T20:30:00Z,26.2168,-96.4998,1023.64,11111222 
TABS,ioos:station:wmo:42045:1,2011-05-03T21:00:00Z,26.2168,-96.4998,1023.74,11111222 
TABS,ioos:station:wmo:42045:1,2011-05-03T21:30:00Z,26.2168,-96.4998,1023.7,11111222 
TABS,ioos:station:wmo:42045:1,2011-05-03T22:00:00Z,26.2168,-96.4998,1023.54,11111222 
TABS,ioos:station:wmo:42045:1,2011-05-03T22:30:00Z,26.2168,-96.4998,1023.4,11111222 
TABS,ioos:station:wmo:42045:1,2011-05-03T23:00:00Z,26.2168,-96.4998,1023.49,11111222 
TABS,ioos:station:wmo:42045:1,2011-05-03T23:30:00Z,26.2168,-96.4998,1023.67,11111222 
TABS,ioos:station:wmo:42045:1,2011-05-04T00:00:00Z,26.2168,-96.4998,1023.66,11111222 
TABS,ioos:station:wmo:42045:1,2011-05-04T00:30:00Z,26.2168,-96.4998,1024.13,11111222 
TABS,ioos:station:wmo:42045:1,2011-05-04T01:00:00Z,26.2168,-96.4998,1024.33,11111222 
TABS,ioos:station:wmo:42045:1,2011-05-04T01:30:00Z,26.2168,-96.4998,1024.45,11111222 
TABS,ioos:station:wmo:42045:1,2011-05-04T02:00:00Z,26.2168,-96.4998,1024.44,11111222 
TABS,ioos:station:wmo:42045:1,2011-05-04T02:30:00Z,26.2168,-96.4998,1024.67,11111222 
TABS,ioos:station:wmo:42045:1,2011-05-04T03:00:00Z,26.2168,-96.4998,1024.91,11111222 
TABS,ioos:station:wmo:42045:1,2011-05-04T03:30:00Z,26.2168,-96.4998,1025.03,11111222 
TABS,ioos:station:wmo:42045:1,2011-05-04T04:00:00Z,26.2168,-96.4998,1025.04,11111222 
TABS,ioos:station:wmo:42045:1,2011-05-04T04:30:00Z,26.2168,-96.4998,1025.14,11111222 
TABS,ioos:station:wmo:42045:1,2011-05-04T05:00:00Z,26.2168,-96.4998,1025.22,11111222 
TABS,ioos:station:wmo:42045:1,2011-05-04T05:30:00Z,26.2168,-96.4998,1025.24,11111222 
TABS,ioos:station:wmo:42045:1,2011-05-04T06:00:00Z,26.2168,-96.4998,1025.14,11111222 
TABS,ioos:station:wmo:42045:1,2011-05-04T06:30:00Z,26.2168,-96.4998,1024.73,11111222 
TABS,ioos:station:wmo:42045:1,2011-05-04T07:00:00Z,26.2168,-96.4998,1024.52,11111222 
TABS,ioos:station:wmo:42045:1,2011-05-04T07:30:00Z,26.2168,-96.4998,1024.26,11111222 
TABS,ioos:station:wmo:42045:1,2011-05-04T08:00:00Z,26.2168,-96.4998,1024.43,11111222 
TABS,ioos:station:wmo:42045:1,2011-05-04T08:30:00Z,26.2168,-96.4998,1024.08,11111222 
TABS,ioos:station:wmo:42045:1,2011-05-04T09:00:00Z,26.2168,-96.4998,1023.99,11111222 
TABS,ioos:station:wmo:42045:1,2011-05-04T09:30:00Z,26.2168,-96.4998,1024.15,11111222 
TABS,ioos:station:wmo:42045:1,2011-05-04T10:00:00Z,26.2168,-96.4998,1024.11,11111222 
TABS,ioos:station:wmo:42045:1,2011-05-04T10:30:00Z,26.2168,-96.4998,1023.9,11111222 
TABS,ioos:station:wmo:42045:1,2011-05-04T11:00:00Z,26.2168,-96.4998,1023.87,11111222 
TABS,ioos:station:wmo:42045:1,2011-05-04T11:30:00Z,26.2168,-96.4998,1024.31,11111222 
TABS,ioos:station:wmo:42045:1,2011-05-04T12:00:00Z,26.2168,-96.4998,1024.42,11111222 
TABS,ioos:station:wmo:42045:1,2011-05-04T12:30:00Z,26.2168,-96.4998,1024.74,11111222 
TABS,ioos:station:wmo:42045:1,2011-05-04T13:00:00Z,26.2168,-96.4998,1024.98,11111222 
TABS,ioos:station:wmo:42045:1,2011-05-04T13:30:00Z,26.2168,-96.4998,1025.29,11111222 
TABS,ioos:station:wmo:42045:1,2011-05-04T14:00:00Z,26.2168,-96.4998,1025.62,11111222 
TABS,ioos:station:wmo:42045:1,2011-05-04T14:30:00Z,26.2168,-96.4998,1025.78,11111222 
TABS,ioos:station:wmo:42045:1,2011-05-04T15:00:00Z,26.2168,-96.4998,1026.12,11111222 
TABS,ioos:station:wmo:42045:1,2011-05-04T15:30:00Z,26.2168,-96.4998,1026.13,11111222 
TABS,ioos:station:wmo:42045:1,2011-05-04T16:00:00Z,26.2168,-96.4998,1026.23,11111222 
TABS,ioos:station:wmo:42045:1,2011-05-04T16:30:00Z,26.2168,-96.4998,1025.71,11111222 
TABS,ioos:station:wmo:42045:1,2011-05-04T17:00:00Z,26.2168,-96.4998,1025.79,11111222 
TABS,ioos:station:wmo:42045:1,2011-05-04T17:30:00Z,26.2168,-96.4998,1025.59,11111222 
TABS,ioos:station:wmo:42045:1,2011-05-04T18:00:00Z,26.2168,-96.4998,1025.26,11111222 
TABS,ioos:station:wmo:42045:1,2011-05-04T18:30:00Z,26.2168,-96.4998,1025.11,11111222 
TABS,ioos:station:wmo:42045:1,2011-05-04T19:00:00Z,26.2168,-96.4998,1024.91,11111222 
TABS,ioos:station:wmo:42045:1,2011-05-04T19:30:00Z,26.2168,-96.4998,1024.42,11111222 
TABS,ioos:station:wmo:42045:1,2011-05-04T20:00:00Z,26.2168,-96.4998,1023.93,11111222 
TABS,ioos:station:wmo:42045:1,2011-05-04T20:30:00Z,26.2168,-96.4998,1023.51,11111222 
TABS,ioos:station:wmo:42045:1,2011-05-04T21:00:00Z,26.2168,-96.4998,1023.19,11111222 
TABS,ioos:station:wmo:42045:1,2011-05-04T21:30:00Z,26.2168,-96.4998,1023.05,11111222 
TABS,ioos:station:wmo:42045:1,2011-05-04T22:00:00Z,26.2168,-96.4998,1022.71,11111222 
TABS,ioos:station:wmo:42045:1,2011-05-04T22:30:00Z,26.2168,-96.4998,1022.49,11111222 
TABS,ioos:station:wmo:42045:1,2011-05-04T23:00:00Z,26.2168,-96.4998,1022.3,11111222 
TABS,ioos:station:wmo:42045:1,2011-05-04T23:30:00Z,26.2168,-96.4998,1022.33,11111222 
TABS,ioos:station:wmo:42045:1,2011-05-05T00:00:00Z,26.2168,-96.4998,1022.39,11111222 
TABS,ioos:station:wmo:42045:1,2011-05-05T00:30:00Z,26.2168,-96.4998,1022.43,11111222 
TABS,ioos:station:wmo:42045:1,2011-05-05T01:00:00Z,26.2168,-96.4998,1022.69,11111222 
TABS,ioos:station:wmo:42045:1,2011-05-05T01:30:00Z,26.2168,-96.4998,1022.73,11111222 
TABS,ioos:station:wmo:42045:1,2011-05-05T02:00:00Z,26.2168,-96.4998,1022.98,11111222 
TABS,ioos:station:wmo:42045:1,2011-05-05T02:30:00Z,26.2168,-96.4998,1023.01,11111222 
TABS,ioos:station:wmo:42045:1,2011-05-05T03:00:00Z,26.2168,-96.4998,1023.05,11111222 
TABS,ioos:station:wmo:42045:1,2011-05-05T03:30:00Z,26.2168,-96.4998,1023.18,11111222 
TABS,ioos:station:wmo:42045:1,2011-05-05T04:00:00Z,26.2168,-96.4998,1023.28,11111222 
TABS,ioos:station:wmo:42045:1,2011-05-05T04:30:00Z,26.2168,-96.4998,1023.15,11111222 
TABS,ioos:station:wmo:42045:1,2011-05-05T05:00:00Z,26.2168,-96.4998,1022.79,11111222 
TABS,ioos:station:wmo:42045:1,2011-05-05T05:30:00Z,26.2168,-96.4998,1022.37,11111222 
TABS,ioos:station:wmo:42045:1,2011-05-05T06:00:00Z,26.2168,-96.4998,1021.94,11111222 
TABS,ioos:station:wmo:42045:1,2011-05-05T06:30:00Z,26.2168,-96.4998,1021.9,11111222 
TABS,ioos:station:wmo:42045:1,2011-05-05T07:00:00Z,26.2168,-96.4998,1021.53,11111222 
TABS,ioos:station:wmo:42045:1,2011-05-05T07:30:00Z,26.2168,-96.4998,1021.36,11111222 
TABS,ioos:station:wmo:42045:1,2011-05-05T08:00:00Z,26.2168,-96.4998,1020.77,11111222 
TABS,ioos:station:wmo:42045:1,2011-05-05T08:30:00Z,26.2168,-96.4998,1020.34,11111222 
TABS,ioos:station:wmo:42045:1,2011-05-05T09:00:00Z,26.2168,-96.4998,1019.98,11111222 
TABS,ioos:station:wmo:42045:1,2011-05-05T09:30:00Z,26.2168,-96.4998,1019.5,11111222 
TABS,ioos:station:wmo:42045:1,2011-05-05T10:00:00Z,26.2168,-96.4998,1019.5,11111222 
TABS,ioos:station:wmo:42045:1,2011-05-05T10:30:00Z,26.2168,-96.4998,1019.22,11111222 
TABS,ioos:station:wmo:42045:1,2011-05-05T11:00:00Z,26.2168,-96.4998,1019.47,11111222 
TABS,ioos:station:wmo:42045:1,2011-05-05T11:30:00Z,26.2168,-96.4998,1019.66,11111222 
TABS,ioos:station:wmo:42045:1,2011-05-05T12:00:00Z,26.2168,-96.4998,1020.05,11111222 
TABS,ioos:station:wmo:42045:1,2011-05-05T12:30:00Z,26.2168,-96.4998,1020.0,11111222 
TABS,ioos:station:wmo:42045:1,2011-05-05T13:00:00Z,26.2168,-96.4998,1020.03,11111222 
TABS,ioos:station:wmo:42045:1,2011-05-05T13:30:00Z,26.2168,-96.4998,1020.15,11111222 
TABS,ioos:station:wmo:42045:1,2011-05-05T14:00:00Z,26.2168,-96.4998,1020.25,11111222 
TABS,ioos:station:wmo:42045:1,2011-05-05T14:30:00Z,26.2168,-96.4998,1020.03,11111222 
TABS,ioos:station:wmo:42045:1,2011-05-05T15:00:00Z,26.2168,-96.4998,1020.12,11111222 
TABS,ioos:station:wmo:42045:1,2011-05-05T15:30:00Z,26.2168,-96.4998,1020.02,11111222 
TABS,ioos:station:wmo:42045:1,2011-05-05T16:00:00Z,26.2168,-96.4998,1019.94,11111222 
TABS,ioos:station:wmo:42045:1,2011-05-05T16:30:00Z,26.2168,-96.4998,1020.05,11111222 
TABS,ioos:station:wmo:42045:1,2011-05-05T17:00:00Z,26.2168,-96.4998,1020.03,11111222 
TABS,ioos:station:wmo:42045:1,2011-05-05T17:30:00Z,26.2168,-96.4998,1019.87,11111222 
TABS,ioos:station:wmo:42045:1,2011-05-05T18:00:00Z,26.2168,-96.4998,1019.77,11111222 
TABS,ioos:station:wmo:42045:1,2011-05-05T18:30:00Z,26.2168,-96.4998,1019.42,11111222 
TABS,ioos:station:wmo:42045:1,2011-05-05T19:00:00Z,26.2168,-96.4998,1019.22,11111222 
TABS,ioos:station:wmo:42045:1,2011-05-05T19:30:00Z,26.2168,-96.4998,1019.03,11111222 
TABS,ioos:station:wmo:42045:1,2011-05-05T20:00:00Z,26.2168,-96.4998,1018.82,11111222 
TABS,ioos:station:wmo:42045:1,2011-05-05T20:30:00Z,26.2168,-96.4998,1018.06,11111222 
TABS,ioos:station:wmo:42045:1,2011-05-05T21:00:00Z,26.2168,-96.4998,1017.43,11111222 
TABS,ioos:station:wmo:42045:1,2011-05-05T21:30:00Z,26.2168,-96.4998,1017.37,11111222 
TABS,ioos:station:wmo:42045:1,2011-05-05T22:00:00Z,26.2168,-96.4998,1017.05,11111222 
TABS,ioos:station:wmo:42045:1,2011-05-05T22:30:00Z,26.2168,-96.4998,1017.01,11111222 
TABS,ioos:station:wmo:42045:1,2011-05-05T23:00:00Z,26.2168,-96.4998,1016.95,11111222 
TABS,ioos:station:wmo:42045:1,2011-05-05T23:30:00Z,26.2168,-96.4998,1016.81,11111222 
TABS,ioos:station:wmo:42045:1,2011-05-06T00:00:00Z,26.2168,-96.4998,1016.49,11111222 
TABS,ioos:station:wmo:42045:1,2011-05-06T00:30:00Z,26.2168,-96.4998,1016.27,11111222 
TABS,ioos:station:wmo:42045:1,2011-05-06T01:00:00Z,26.2168,-96.4998,1016.62,11111222 
TABS,ioos:station:wmo:42045:1,2011-05-06T01:30:00Z,26.2168,-96.4998,1016.85,11111222 
TABS,ioos:station:wmo:42045:1,2011-05-06T02:00:00Z,26.2168,-96.4998,1016.96,11111222 
TABS,ioos:station:wmo:42045:1,2011-05-06T02:30:00Z,26.2168,-96.4998,1017.47,11111222 
TABS,ioos:station:wmo:42045:1,2011-05-06T03:00:00Z,26.2168,-96.4998,1017.74,11111222 
TABS,ioos:station:wmo:42045:1,2011-05-06T03:30:00Z,26.2168,-96.4998,1017.93,11111222 
TABS,ioos:station:wmo:42045:1,2011-05-06T04:00:00Z,26.2168,-96.4998,1018.0,11111222 
TABS,ioos:station:wmo:42045:1,2011-05-06T04:30:00Z,26.2168,-96.4998,1018.28,11111222 
TABS,ioos:station:wmo:42045:1,2011-05-06T05:00:00Z,26.2168,-96.4998,1018.21,11111222 
TABS,ioos:station:wmo:42045:1,2011-05-06T05:30:00Z,26.2168,-96.4998,1018.37,11111222 
TABS,ioos:station:wmo:42045:1,2011-05-06T06:00:00Z,26.2168,-96.4998,1018.05,11111222 
TABS,ioos:station:wmo:42045:1,2011-05-06T06:30:00Z,26.2168,-96.4998,1017.87,11111222 
TABS,ioos:station:wmo:42045:1,2011-05-06T07:00:00Z,26.2168,-96.4998,1017.43,11111222 
TABS,ioos:station:wmo:42045:1,2011-05-06T07:30:00Z,26.2168,-96.4998,1017.25,11111222 
TABS,ioos:station:wmo:42045:1,2011-05-06T08:00:00Z,26.2168,-96.4998,1016.84,11111222 
TABS,ioos:station:wmo:42045:1,2011-05-06T08:30:00Z,26.2168,-96.4998,1016.68,11111222 
TABS,ioos:station:wmo:42045:1,2011-05-06T09:00:00Z,26.2168,-96.4998,1016.42,11111222 
TABS,ioos:station:wmo:42045:1,2011-05-06T09:30:00Z,26.2168,-96.4998,1016.49,11111222 
TABS,ioos:station:wmo:42045:1,2011-05-06T10:00:00Z,26.2168,-96.4998,1016.25,11111222 
TABS,ioos:station:wmo:42045:1,2011-05-06T10:30:00Z,26.2168,-96.4998,1016.19,11111222 
TABS,ioos:station:wmo:42045:1,2011-05-06T11:00:00Z,26.2168,-96.4998,1016.6,11111222 
TABS,ioos:station:wmo:42045:1,2011-05-06T11:30:00Z,26.2168,-96.4998,1016.83,11111222 
TABS,ioos:station:wmo:42045:1,2011-05-06T12:00:00Z,26.2168,-96.4998,1016.84,11111222 
TABS,ioos:station:wmo:42045:1,2011-05-06T12:30:00Z,26.2168,-96.4998,1017.13,11111222 
TABS,ioos:station:wmo:42045:1,2011-05-06T13:00:00Z,26.2168,-96.4998,1017.3,11111222 
TABS,ioos:station:wmo:42045:1,2011-05-06T13:30:00Z,26.2168,-96.4998,1017.53,11111222 
TABS,ioos:station:wmo:42045:1,2011-05-06T14:00:00Z,26.2168,-96.4998,1017.86,11111222 
TABS,ioos:station:wmo:42045:1,2011-05-06T14:30:00Z,26.2168,-96.4998,1017.94,11111222 
TABS,ioos:station:wmo:42045:1,2011-05-06T15:00:00Z,26.2168,-96.4998,1017.88,11111222 
TABS,ioos:station:wmo:42045:1,2011-05-06T15:30:00Z,26.2168,-96.4998,1018.46,11111222 
TABS,ioos:station:wmo:42045:1,2011-05-06T16:00:00Z,26.2168,-96.4998,1018.12,11111222 
TABS,ioos:station:wmo:42045:1,2011-05-06T16:30:00Z,26.2168,-96.4998,1018.26,11111222 
TABS,ioos:station:wmo:42045:1,2011-05-06T17:00:00Z,26.2168,-96.4998,1018.1,11111222 
TABS,ioos:station:wmo:42045:1,2011-05-06T17:30:00Z,26.2168,-96.4998,1017.92,11111222 
TABS,ioos:station:wmo:42045:1,2011-05-06T18:00:00Z,26.2168,-96.4998,1017.37,11111222 
TABS,ioos:station:wmo:42045:1,2011-05-06T18:30:00Z,26.2168,-96.4998,1017.28,11111222 